Location: Camp Creek
(33.9000°N, 111.8167°W)
Time: 14:35:22
(UTC-07:00)

DELTA 2 R/B (1) - Visible Passes

Search period start: 21 October 2014 00:00
Search period end: 31 October 2014 00:00
Orbit: 792 x 803 km, 39.6° (Epoch: 21 October)

Date Brightness Start Highest point End Pass type
(mag) Time Alt. Az. Time Alt. Az. Time Alt. Az.
21 Oct 4.3 04:14:03 45° NNE 04:14:03 45° NNE 04:18:30 10° ENE visible
21 Oct 4.1 05:54:51 11° WNW 06:00:10 53° N 06:05:35 10° E visible
22 Oct 5.3 03:45:08 28° NE 03:45:08 28° NE 03:47:52 10° ENE visible
22 Oct 4.1 05:25:56 21° WNW 05:29:31 52° N 05:34:55 10° E visible
23 Oct 6.2 03:16:14 15° ENE 03:16:14 15° ENE 03:17:15 10° ENE visible
23 Oct 4.1 04:57:01 36° NW 04:58:53 50° N 05:04:16 10° E visible
24 Oct 4.0 04:28:08 49° N 04:28:14 49° N 04:33:36 10° E visible
24 Oct 3.6 06:09:25 10° WNW 06:14:59 84° SSW 06:20:31 10° ESE visible
25 Oct 4.8 03:59:16 37° NE 03:59:16 37° NE 04:02:57 10° E visible
25 Oct 3.6 05:40:04 17° WNW 05:44:22 89° SSW 05:49:55 10° ESE visible
26 Oct 5.8 03:30:27 21° ENE 03:30:27 21° ENE 03:32:17 10° E visible
26 Oct 3.5 05:11:15 34° WNW 05:13:45 86° NNE 05:19:18 10° ESE visible
27 Oct 3.4 04:42:29 69° NW 04:43:08 82° NNE 04:48:41 10° ESE visible
28 Oct 4.1 04:13:47 54° E 04:13:47 54° E 04:18:03 10° ESE visible
28 Oct 4.5 05:54:35 14° W 05:58:43 33° SW 06:03:38 10° SSE visible
29 Oct 5.5 03:45:07 26° E 03:45:07 26° E 03:47:25 10° ESE visible
29 Oct 4.3 05:25:56 26° WSW 05:28:09 36° SW 05:33:10 10° SSE visible
30 Oct 6.4 03:16:31 11° ESE 03:16:31 11° ESE 03:16:47 10° ESE visible
30 Oct 4.1 04:57:20 39° SW 04:57:34 40° SSW 05:02:41 10° SE visible
